Wind_Speed
43 44 46 47 49 49 49 46 43 34 21 17 21 24 24 23 22 22 23 24 24 23 23 23 21 19 18 16 16 15 15 14 13 12 11 10 9 10 11 13 15 17 19
43 43 43 45 45 44 42 40 36 28 20 19 18 20 21 21 23 23 24 24 24 24 23 22 20 19 18 17 16 17 17 16 15 14 12 12 11 11 12 13 15 17 19
37 39 40 41 41 41 41 38 33 28 22 21 20 21 21 22 23 23 23 23 23 23 23 22 21 20 20 19 19 19 19 19 17 16 14 13 13 14 14 14 15 17 19
35 37 38 39 40 40 39 37 33 29 26 22 20 21 20 21 22 22 22 23 23 23 23 23 23 23 23 22 22 21 21 21 21 19 17 15 14 14 17 17 16 17 19
33 36 38 40 41 42 40 38 35 31 29 28 26 24 24 23 23 23 24 24 25 25 25 26 26 26 26 26 25 24 23 24 24 22 21 19 17 15 16 19 20 18 19
34 37 40 42 44 45 44 41 39 36 35 34 33 32 31 30 29 29 29 29 28 28 28 29 30 30 30 29 28 27 26 26 27 26 24 23 21 19 18 19 21 21 21
33 38 41 44 46 47 47 46 45 43 42 40 39 39 38 38 37 37 36 35 34 33 33 33 33 33 33 34 33 31 30 30 29 29 28 26 25 24 22 20 20 21 22
39 42 45 47 48 49 49 48 47 47 46 46 46 45 44 44 44 43 43 43 42 41 39 38 36 36 37 37 38 36 35 34 33 32 31 29 28 27 25 24 22 21 23
45 48 50 52 53 54 54 53 52 51 50 50 51 51 51 50 50 49 49 48 48 47 47 46 44 42 41 42 42 41 40 38 37 35 34 33 31 30 28 26 24 22 22
50 53 56 58 59 61 61 61 60 59 57 55 55 55 55 55 55 54 54 53 53 53 52 53 52 50 48 47 46 45 44 42 41 39 37 36 34 32 30 29 26 24 23
53 55 58 60 63 65 66 68 68 68 66 65 63 62 61 60 60 59 59 58 58 57 57 57 58 57 56 54 52 50 48 47 45 43 41 38 36 34 32 30 28 26 24
56 58 60 62 65 68 70 72 74 75 75 74 72 70 68 66 64 63 63 63 63 63 62 62 62 62 61 60 58 56 53 51 49 47 44 41 39 36 34 32 30 29 26
58 61 63 66 69 71 73 75 76 76 76 74 71 66 61 59 58 58 59 61 63 65 67 67 66 66 66 64 63 60 58 56 53 51 48 45 42 39 36 34 32 30 28
62 65 68 70 71 71 71 71 69 67 64 59 54 48 43 41 39 40 43 46 52 58 64 68 70 71 70 69 66 64 61 59 56 54 51 48 45 42 39 36 34 32 30
65 67 68 68 67 65 63 60 57 54 51 48 43 39 36 34 32 32 32 33 35 40 47 55 64 70 73 73 71 68 64 61 58 55 52 50 47 45 42 38 36 33 31
64 63 62 61 60 58 56 54 52 50 47 45 43 41 40 38 37 35 34 33 32 32 33 37 44 53 62 70 73 72 68 64 60 56 53 51 49 46 44 40 37 35 32
59 58 57 57 56 55 54 53 52 51 49 48 46 46 45 44 43 41 39 37 36 36 35 33 34 36 41 51 62 69 70 67 63 58 55 52 49 46 44 42 39 36 33
55 56 56 57 57 57 56 55 54 53 52 52 52 51 51 49 47 46 44 41 40 38 37 35 33 32 32 34 41 53 62 65 64 60 57 53 50 48 45 43 40 37 35
55 56 57 58 58 57 57 56 54 53 53 52 53 53 53 53 51 49 47 45 42 40 39 37 35 33 31 30 30 35 46 55 60 61 58 55 52 49 45 43 41 38 35
53 55 56 57 57 57 56 54 52 51 50 50 50 50 52 52 51 49 47 46 44 42 40 39 38 35 33 30 28 27 32 42 50 56 58 56 53 50 47 43 41 38 36
53 55 56 56 56 56 54 52 50 49 47 46 45 45 46 48 48 48 46 45 44 42 40 39 38 37 35 32 29 26 26 31 40 47 53 53 51 49 47 44 41 39 36
53 55 56 57 57 56 54 51 48 45 43 41 39 38 39 40 41 42 42 42 42 40 39 39 39 38 37 34 31 28 25 27 33 42 48 51 49 48 46 45 42 39 36
53 55 56 57 56 55 54 50 47 44 41 38 35 33 32 32 34 35 36 37 37 37 37 37 37 37 36 34 32 30 26 26 30 38 46 49 49 47 45 45 43 40 36
52 54 56 56 56 55 53 51 47 44 40 35 30 27 25 25 25 27 29 30 31 32 32 33 34 35 34 33 32 31 27 27 29 36 47 49 48 47 46 44 43 40 37
51 53 55 56 56 55 53 51 48 44 40 34 28 24 21 19 19 19 22 24 26 27 28 29 31 32 32 31 31 30 28 27 29 36 49 50 48 48 46 45 43 40 36
50 52 54 56 56 55 54 52 48 45 40 34 28 23 20 15 12 11 12 16 19 22 24 25 27 29 29 29 29 28 27 27 31 36 48 51 49 47 45 44 42 39 35
Wind_Direction
281 286 291 297 300 303 307 309 308 302 284 249 238 241 253 268 275 279 283 285 285 283 282 281 276 267 257 250 246 244 241 239 237 241 248 260 274 288 295 298 296 288 279
284 288 291 296 301 305 309 311 314 312 290 271 264 268 276 278 277 278 281 282 279 277 276 274 269 260 250 243 243 243 241 238 236 239 246 258 274 287 296 302 302 297 289
286 290 292 296 300 305 309 312 313 312 306 295 286 283 283 282 278 274 275 275 274 272 271 266 259 252 247 245 245 245 245 244 241 243 250 260 277 290 297 301 302 301 297
287 289 292 296 300 304 308 310 311 307 304 302 294 289 290 289 282 275 270 269 268 267 264 259 253 248 247 247 248 250 251 249 249 250 253 261 271 283 293 299 302 303 300
286 289 292 295 298 303 307 308 310 307 304 303 299 294 291 288 284 277 272 268 264 260 257 255 251 248 247 248 249 250 250 250 252 254 258 264 269 277 284 293 299 303 301
287 289 292 296 299 303 306 307 307 306 303 301 297 293 289 285 281 277 273 268 263 259 255 253 252 251 249 249 250 251 251 251 253 256 260 266 272 278 280 285 293 299 302
295 295 296 298 301 303 306 306 306 304 302 298 294 290 287 283 279 275 273 268 264 259 255 252 251 252 252 251 251 252 252 252 253 255 259 265 272 278 281 282 287 293 298
300 299 300 300 301 301 302 302 301 299 297 294 292 288 285 281 278 275 271 268 265 262 258 254 250 250 252 253 252 252 252 252 253 255 258 263 268 274 279 280 282 288 294
305 304 304 303 303 302 300 299 297 295 292 290 287 285 282 279 276 273 270 267 265 262 260 257 253 250 249 250 251 251 251 252 253 254 257 260 265 270 274 278 279 282 289
308 307 306 306 305 303 302 300 298 295 293 289 286 282 279 276 274 271 269 266 263 261 259 258 255 252 250 249 249 250 251 252 252 254 256 259 262 266 270 273 276 279 284
310 309 308 307 306 304 303 302 301 299 296 293 289 285 280 275 271 268 265 263 261 259 257 256 255 254 252 250 249 248 250 251 252 253 255 257 260 263 266 269 271 275 280
313 311 310 308 306 305 304 302 301 299 297 295 292 289 285 280 275 270 265 261 259 257 255 254 253 252 252 251 250 249 249 249 250 251 253 255 257 260 263 265 267 270 275
314 312 311 309 307 305 304 302 301 300 299 298 296 294 290 285 280 274 268 262 258 255 253 251 250 250 250 250 249 249 248 248 248 249 250 252 254 256 259 261 263 265 270
316 314 312 310 307 306 304 303 302 301 301 300 299 296 292 287 282 277 270 264 258 254 251 249 248 247 248 248 248 247 247 246 246 247 248 249 250 252 255 257 258 260 264
316 314 312 310 309 308 306 305 303 302 300 299 297 294 291 288 284 280 275 270 264 258 254 250 247 246 245 245 246 245 245 244 243 244 244 246 247 248 250 252 254 256 259
317 316 315 314 312 311 308 306 303 300 297 294 291 288 286 284 282 279 276 273 269 266 263 258 253 249 246 244 243 243 242 241 241 240 240 241 243 244 245 246 249 251 254
322 321 320 317 314 312 309 305 301 297 292 288 285 282 282 281 279 277 275 271 267 265 265 263 262 259 254 249 244 242 240 239 238 237 237 237 238 240 241 242 245 247 249
327 326 324 320 317 313 309 305 301 296 291 285 281 278 277 276 276 275 274 271 267 264 262 261 259 258 258 256 250 244 239 237 235 234 234 233 234 235 238 239 241 244 246
331 330 329 325 322 318 314 309 304 298 292 287 282 277 275 274 272 272 270 269 266 263 259 256 254 254 254 256 255 248 240 235 232 231 230 230 231 232 234 236 238 240 242
335 334 333 330 327 323 320 317 311 305 298 291 285 279 274 272 270 268 266 265 263 260 256 252 250 250 250 251 252 251 243 234 229 226 226 227 228 229 231 233 235 235 236
339 338 338 336 333 331 327 323 318 313 306 299 292 284 277 272 268 265 263 261 259 256 252 249 247 245 245 245 246 247 246 234 224 220 219 219 222 225 227 229 230 230 231
341 341 341 340 338 337 335 331 327 322 316 309 301 291 282 275 269 264 260 257 255 252 248 245 242 240 239 240 242 244 246 238 223 215 212 209 213 219 222 224 225 226 227
344 344 345 345 344 343 341 339 335 331 326 318 310 300 289 279 272 265 260 255 251 247 244 240 237 235 234 235 236 237 240 233 222 212 204 201 204 209 216 219 220 220 221
347 348 349 350 349 348 347 346 344 341 337 329 321 313 300 287 277 266 257 251 245 241 237 234 231 230 228 228 229 230 232 229 221 210 198 195 198 202 209 213 214 215 215
351 352 354 354 354 353 353 352 351 349 347 343 336 329 319 305 286 268 254 245 237 232 229 227 225 224 223 222 223 224 226 226 218 208 197 192 193 198 204 208 209 209 210
354 355 357 358 358 358 358 357 357 357 356 354 351 347 340 328 305 272 246 231 225 221 219 218 218 216 215 215 217 219 222 220 214 207 198 192 189 193 198 203 205 206 208
Height
5856 5853 5850 5846 5841 5835 5827 5820 5816 5808 5804 5804 5807 5811 5815 5816 5817 5817 5817 5816 5815 5815 5814 5814 5813 5813 5813 5813 5814 5814 5815 5816 5818 5818 5819 5819 5819 5818 5817 5815 5814 5813 5813
5850 5848 5844 5840 5837 5832 5825 5821 5817 5812 5808 5806 5806 5808 5809 5810 5811 5811 5811 5810 5809 5809 5808 5808 5808 5808 5808 5808 5808 5809 5810 5811 5813 5814 5815 5815 5815 5814 5813 5811 5809 5808 5807
5845 5842 5839 5835 5832 5828 5824 5819 5816 5812 5808 5805 5804 5804 5804 5804 5804 5804 5804 5803 5803 5802 5802 5802 5802 5802 5803 5803 5803 5804 5805 5806 5807 5809 5810 5810 5810 5808 5808 5807 5805 5802 5800
5840 5836 5833 5829 5826 5823 5819 5815 5811 5807 5805 5802 5800 5799 5798 5797 5797 5796 5797 5796 5796 5795 5795 5795 5796 5796 5796 5797 5797 5798 5799 5800 5801 5802 5803 5804 5805 5804 5802 5801 5800 5798 5795
5834 5830 5826 5822 5818 5814 5811 5808 5804 5801 5797 5795 5793 5792 5791 5791 5790 5789 5789 5789 5788 5788 5788 5788 5788 5788 5789 5789 5790 5791 5791 5793 5794 5795 5796 5797 5798 5799 5798 5796 5794 5793 5790
5826 5822 5818 5813 5809 5804 5801 5798 5795 5792 5789 5787 5785 5784 5783 5782 5782 5781 5780 5780 5780 5780 5780 5780 5780 5780 5780 5781 5782 5782 5783 5785 5786 5788 5789 5790 5790 5792 5792 5791 5789 5786 5784
5819 5814 5809 5804 5798 5793 5790 5786 5783 5781 5779 5777 5775 5774 5773 5772 5771 5771 5770 5769 5769 5770 5770 5771 5771 5771 5771 5772 5772 5773 5775 5776 5778 5779 5781 5782 5783 5784 5784 5785 5784 5781 5778
5809 5804 5799 5793 5788 5783 5779 5776 5772 5769 5766 5764 5762 5760 5759 5758 5758 5757 5757 5756 5756 5757 5757 5759 5760 5761 5761 5762 5763 5764 5765 5766 5768 5770 5772 5773 5774 5775 5776 5777 5777 5776 5773
5797 5791 5785 5779 5774 5769 5764 5761 5758 5756 5753 5750 5746 5744 5743 5742 5741 5741 5741 5741 5741 5742 5742 5744 5746 5747 5749 5750 5751 5753 5754 5756 5758 5760 5762 5764 5765 5767 5768 5769 5770 5769 5767
5786 5779 5772 5765 5758 5751 5745 5741 5738 5736 5733 5731 5728 5726 5723 5721 5721 5721 5722 5722 5723 5724 5726 5727 5729 5731 5734 5736 5738 5740 5742 5745 5748 5750 5752 5754 5756 5758 5759 5761 5761 5762 5761
5776 5768 5760 5752 5744 5735 5727 5720 5714 5710 5708 5705 5704 5702 5700 5699 5698 5699 5699 5701 5702 5704 5706 5709 5711 5714 5717 5720 5723 5726 5729 5732 5736 5739 5742 5744 5747 5749 5750 5752 5753 5754 5754
5764 5756 5747 5739 5729 5720 5710 5702 5693 5687 5681 5677 5674 5672 5671 5670 5671 5672 5674 5676 5678 5681 5684 5687 5691 5694 5697 5701 5706 5710 5714 5718 5722 5726 5730 5734 5737 5740 5742 5743 5745 5746 5747
5753 5744 5734 5724 5714 5704 5694 5684 5674 5665 5658 5653 5648 5645 5642 5641 5641 5643 5645 5648 5651 5655 5659 5663 5668 5672 5676 5681 5686 5692 5697 5702 5707 5712 5717 5721 5725 5729 5732 5734 5736 5738 5739
5740 5729 5719 5709 5698 5688 5678 5668 5658 5649 5641 5634 5629 5626 5623 5621 5620 5620 5620 5622 5625 5628 5632 5637 5642 5648 5653 5659 5664 5671 5678 5685 5691 5697 5703 5708 5713 5718 5722 5725 5727 5730 5731
5727 5716 5705 5693 5683 5672 5662 5653 5644 5636 5628 5622 5618 5614 5611 5610 5608 5607 5606 5605 5606 5607 5609 5613 5617 5623 5629 5636 5642 5649 5658 5666 5674 5681 5688 5694 5700 5705 5710 5714 5718 5721 5723
5714 5702 5690 5679 5668 5657 5648 5639 5631 5623 5616 5611 5606 5602 5599 5598 5596 5595 5594 5594 5594 5594 5594 5595 5597 5601 5605 5611 5619 5627 5637 5646 5655 5664 5672 5679 5687 5693 5698 5703 5708 5712 5715
5699 5688 5677 5665 5654 5644 5634 5625 5616 5609 5602 5597 5592 5588 5585 5583 5581 5581 5581 5581 5581 5581 5582 5583 5584 5586 5588 5591 5597 5605 5615 5625 5636 5646 5656 5664 5673 5680 5686 5692 5697 5702 5706
5687 5675 5663 5651 5639 5628 5618 5608 5600 5592 5585 5579 5575 5571 5568 5566 5565 5564 5564 5565 5566 5567 5569 5570 5572 5574 5576 5578 5580 5585 5593 5604 5616 5628 5639 5649 5658 5667 5674 5681 5687 5692 5697
5675 5662 5649 5636 5623 5611 5600 5590 5581 5572 5565 5559 5554 5551 5548 5547 5546 5546 5547 5548 5549 5552 5554 5557 5560 5563 5565 5567 5569 5571 5577 5586 5597 5609 5622 5633 5644 5654 5662 5669 5676 5682 5687
5664 5652 5639 5624 5610 5597 5584 5573 5562 5552 5544 5538 5533 5530 5527 5526 5526 5527 5529 5530 5533 5536 5539 5543 5547 5551 5554 5557 5560 5562 5565 5572 5581 5593 5606 5618 5630 5640 5649 5658 5665 5672 5678
5656 5643 5629 5614 5598 5584 5570 5557 5545 5535 5526 5518 5513 5509 5507 5506 5506 5508 5510 5513 5516 5520 5524 5529 5534 5538 5543 5547 5551 5554 5557 5560 5568 5578 5590 5603 5616 5627 5637 5646 5654 5661 5668
5649 5635 5620 5605 5589 5573 5558 5545 5532 5521 5511 5502 5495 5491 5488 5487 5488 5490 5492 5496 5500 5504 5509 5514 5520 5525 5531 5536 5541 5546 5549 5553 5558 5567 5578 5591 5604 5615 5625 5635 5644 5652 5659
5642 5628 5613 5598 5582 5565 5550 5536 5523 5510 5499 5490 5482 5477 5473 5472 5472 5474 5476 5480 5485 5490 5495 5501 5507 5513 5519 5526 5531 5537 5541 5545 5550 5557 5568 5580 5593 5603 5614 5624 5634 5643 5651
5636 5622 5608 5593 5577 5561 5545 5529 5515 5502 5490 5480 5472 5466 5462 5460 5459 5460 5463 5467 5472 5477 5483 5489 5496 5502 5509 5516 5522 5528 5533 5538 5542 5549 5558 5570 5582 5593 5605 5615 5625 5634 5642
5631 5618 5603 5588 5573 5557 5541 5525 5511 5497 5485 5474 5466 5460 5455 5452 5450 5451 5453 5457 5462 5467 5473 5480 5486 5493 5500 5507 5513 5519 5525 5530 5535 5541 5550 5561 5573 5584 5596 5607 5617 5626 5635
5628 5615 5601 5586 5570 5555 5539 5524 5509 5496 5484 5473 5464 5457 5452 5448 5445 5445 5447 5450 5455 5460 5466 5472 5479 5486 5493 5499 5506 5512 5518 5523 5529 5535 5544 5554 5566 5577 5589 5600 5610 5620 5628